Flag for Canada Weather past 2 weeks in Yellowknife, Northwest Territories, Canada

9 °F

Light snow. Overcast.

Feels Like: 9 °F
Forecast: 5 / 15 °F
Wind: 2 mph from North

Location: Yellowknife

Current Time: Nov 25, 2015 at 12:10:59 AM

Latest Report: Nov 24, 2015 at 11:00 PM

Visibility: 12 mi

Pressure: 30.20 "Hg

Humidity: 92%

Dew point: 7 °F

Location of YellowknifeLocation

Historic Weather in Yellowknife — Graph


Yellowknife temperature yesterday

Maximum temperature yesterday: 7 °F (at 1:00 PM)
Minimum temperature yesterday: -11 °F (at 12:00 AM)
Average temperature yesterday: -1 °F

Past Weeks' High & Low Weather Summary

High34 °F (Nov 10, 12:00 PM)100% (Nov 11, 8:00 AM)30.41 "Hg (Nov 11, 8:00 AM)
Low-13 °F (Nov 20, 9:00 AM)70% (Nov 10, 12:00 PM)28.96 "Hg (Nov 11, 8:00 AM)
Average12 °F86%29.72 "Hg
* Reported Nov 9 10:00 PM — Nov 24 10:00 PM, Yellowknife, Weather by CustomWeather, © 2015

Note: Actual official high and low records may vary slightly from our data, if they occured in-between our weather recording intervals... More about our weather records


Yellowknife weather history for previous 24 hours

Time TempWeatherWind HumidityBarometerVisibility
10:00 PM
Tue, Nov 24
7 °FLight snow. Passing clouds.3 mph85%30.20 "Hg15 mi
9:00 PM7 °FLight snow. Overcast.2 mph92%30.22 "Hg15 mi
8:00 PM5 °FOvercast.7 mph85%30.24 "Hg15 mi
7:00 PM3 °FLight snow. Mostly cloudy.6 mph85%30.26 "Hg15 mi
6:00 PM3 °FLight snow. Overcast.6 mph85%30.28 "Hg15 mi
5:00 PM0 °FPassing clouds.7 mph84%30.28 "Hg15 mi
4:00 PM0 °FPassing clouds.3 mph84%30.30 "Hg15 mi
3:00 PM0 °FScattered clouds.2 mph84%30.31 "Hg15 mi
2:00 PM5 °FPartly sunny.No wind85%30.32 "Hg15 mi
1:00 PM7 °FPartly sunny.5 mph85%30.34 "Hg15 mi
12:00 PM3 °FPartly sunny.3 mph92%30.35 "Hg15 mi
11:00 AM1 °FPartly sunny.3 mph85%30.36 "Hg15 mi
10:00 AM3 °FPartly sunny.7 mph85%30.36 "Hg15 mi
9:47 AM1 °FPartly sunny.6 mph85%30.36 "Hg15 mi
9:00 AM-2 °FLight snow. Passing clouds.6 mph84%30.37 "Hg15 mi
8:00 AM-6 °FLight snow. Passing clouds.3 mph77%30.37 "Hg15 mi
7:00 AM-2 °FLight snow. Passing clouds.2 mph84%30.37 "Hg15 mi
6:00 AM-4 °FLight snow. Overcast.5 mph84%30.38 "Hg15 mi
5:00 AM-6 °FPassing clouds.5 mph84%30.39 "Hg15 mi
4:00 AM-6 °FPassing clouds.3 mph84%30.40 "Hg15 mi
3:00 AM-9 °FPassing clouds.5 mph77%30.41 "Hg15 mi
2:00 AM-11 °FPassing clouds.8 mph76%30.40 "Hg15 mi
1:50 AM-11 °FPassing clouds.8 mph76%30.40 "Hg15 mi
1:00 AM-11 °FLight snow. Passing clouds.6 mph84%30.39 "Hg15 mi
12:00 AM-11 °FLight snow. Passing clouds.6 mph84%30.38 "Hg15 mi
Weather by CustomWeather, © 2015

See weather overviewHow to use our weather pages